Weather History for Orange, MA

Change the Weather History Date:

Tuesday, February 11, 2014

  Actual Average Record
Temperature  
Mean Temperature 5 °F -  
Max Temperature 21 °F 32 °F 51 °F (2009)
Min Temperature -11 °F 11 °F -11 °F (2014)
Degree Days  
Heating Degree Days 60    
Moisture  
Dew Point -5 °F    
Average Humidity 66    
Maximum Humidity 90    
Minimum Humidity 40    
Precipitation  
Precipitation 0.00 in - - ()
Sea Level Pressure  
Sea Level Pressure 30.32 in    
Wind  
Wind Speed 3 mph (WNW)    
Max Wind Speed 16 mph    
Max Gust Speed 22 mph    
Visibility 8 miles    
Events      
Averages and records for this station are not official NWS values.
T = Trace of Precipitation, MM = Missing Value Source: NWS Daily Summary

Daily Weather History Graph

Daily Weather History Graph

Search for Another Location

Airport:

Trip Planner

Search our weather history database for the weather conditions in past years. The results will help you decide how hot, cold, wet, or windy it might be!

Date:

Astronomy

Feb. 11, 2014 Rise Set
Actual Time 6:51 AM EST 5:15 PM EST
Civil Twilight 6:22 AM EST 5:45 PM EST
Nautical Twilight 5:49 AM EST 6:18 PM EST
Astronomical Twilight 5:16 AM EST 6:51 PM EST
Moon 2:32 PM EST (2/11) 4:28 AM EST (2/11)
Length of Visible Light 11h 22m
Length of Day
10h 24m
Waxing Gibbous, 90% of the Moon is Illuminated
Feb 11
Waxing Gibbous
Feb 14
Full
Feb 22
Last Quarter
Mar 1
New
Mar 8
First Quarter

Hourly Weather History & Observations

Time (EST) Temp. Windchill Dew Point Humidity Pressure Visibility Wind Dir Wind Speed Gust Speed Precip Events Conditions
12:52 AM -2.9 °F - -7.1 °F 82% 30.23 in 5.0 mi Calm Calm - N/A   Clear
1:52 AM -6.0 °F - -11.0 °F 79% 30.24 in 7.0 mi Calm Calm - N/A   Clear
2:52 AM -6.0 °F - -11.9 °F 75% 30.25 in 6.0 mi Calm Calm - N/A   Haze
3:52 AM -7.1 °F - -11.9 °F 79% 30.25 in 7.0 mi Calm Calm - N/A   Clear
4:52 AM -7.1 °F - -11.9 °F 79% 30.27 in 7.0 mi Calm Calm - N/A   Clear
5:52 AM -11.0 °F - -14.1 °F 86% 30.29 in 7.0 mi Calm Calm - N/A   Clear
6:52 AM -11.0 °F - -16.1 °F 78% 30.31 in 5.0 mi Calm Calm - N/A   Haze
7:52 AM -9.0 °F - -11.9 °F 87% 30.32 in 5.0 mi Calm Calm - N/A   Clear
8:31 AM -2.9 °F - -5.1 °F 90% 30.28 in 2.5 mi Calm Calm - N/A   Clear
8:52 AM -0.0 °F - -2.9 °F 88% 30.32 in 3.0 mi Calm Calm - N/A   Clear
9:52 AM 12.9 °F -3.4 °F 1.0 °F 59% 30.33 in 10.0 mi WNW 16.1 mph 21.9 mph 0.00 in   Clear
10:52 AM 17.1 °F 4.3 °F -0.0 °F 47% 30.32 in 10.0 mi West 11.5 mph 18.4 mph 0.00 in   Clear
11:52 AM 19.0 °F 5.6 °F -0.9 °F 42% 30.30 in 10.0 mi West 13.8 mph - 0.00 in   Clear
12:52 PM 19.9 °F 8.6 °F -0.9 °F 40% 30.29 in 10.0 mi West 10.4 mph - 0.00 in   Clear
1:52 PM 21.0 °F 9.9 °F -0.0 °F 40% 30.27 in 10.0 mi WNW 10.4 mph - 0.00 in   Partly Cloudy
2:52 PM 21.0 °F 9.3 °F -0.0 °F 40% 30.28 in 10.0 mi West 11.5 mph - 0.00 in   Partly Cloudy
3:52 PM 19.9 °F 6.2 °F -0.0 °F 42% 30.30 in 10.0 mi WNW 15.0 mph - N/A   Clear
4:52 PM 19.0 °F 6.8 °F -0.9 °F 42% 30.32 in 10.0 mi WNW 11.5 mph - N/A   Clear
5:52 PM 16.0 °F 7.4 °F -0.0 °F 49% 30.36 in 10.0 mi West 5.8 mph - N/A   Clear
6:52 PM 12.0 °F 5.9 °F -0.0 °F 59% 30.38 in 10.0 mi West 3.5 mph - N/A   Clear
7:52 PM 10.9 °F 2.9 °F 1.0 °F 64% 30.40 in 10.0 mi NW 4.6 mph - N/A   Clear
8:52 PM 5.0 °F - -2.0 °F 73% 30.41 in 10.0 mi Calm Calm - N/A   Clear
9:52 PM 1.0 °F - -2.9 °F 83% 30.43 in 10.0 mi Calm Calm - N/A   Clear
10:52 PM -0.9 °F - -5.1 °F 83% 30.45 in 9.0 mi Calm Calm - N/A   Clear
11:52 PM 3.0 °F -9.3 °F -4.0 °F 73% 30.46 in 10.0 mi NNW 6.9 mph - N/A   Clear